Location: Madrid
(40.4000°N, 3.6830°W)
Time: 13:26:55
(UTC+01:00)

ISS - Pass Details

Date: 05 December 2019
Orbit: 411 x 421 km, 51.6° (Epoch: 11 December)

Event Time Altitude Azimuth Distance (km) Brightness Sun altitude
Rises 19:11:32 0° 312° (NW) 2,360 0.5 -15.4°
Reaches altitude 10° 19:14:02 10° 331° (NNW) 1,497 -0.8 -15.9°
Enters shadow 19:16:16 19° 12° (NNE) 1,059 -2.0 -16.3°
